STARLINK-34542, 65890

Orbit data source: Space-Track

STARLINK-34542, 65890 is a payload satellite owned by SpaceX/Seattle (US) in LEO that was launched on Tue, 07 Oct 2025 UTC via an FALCON 9 launch vehicle from the Air Force Eastern Test Range (AFETR). Payload-class satellites include a variety of spacecraft equipped with specific instruments for various scientific and technological missions. These include communications satellites like Starlink; space stations such as the ISS; scientific satellites like the Hubble; Earth observation satellites from companies like Planet Labs, Umbra, and HawkEye 360; GPS; miniature CubeSats for education and research; and military/defense satellites.

Loading next visibility...
Identifier
65890, 2025-224J
Orbit
LEO
Country
Flag of USUS
Related business
Manufacturer
SpaceX/Seattle
Mission
Operational spacecraft
Bus & Motor
STARLINK V2MO, Unknown motor
Mass
575 kg wet, ~530 kg dry
Launch date (UTC)
2025-10-07 (2 months ago)
Launch vehicle
FALCON 9
Launch site
Air Force Eastern Test Range (AFETR)
Object type
Payload
Rocket body
Debris
Shape & HBR
Unknown shape, 17.7 m
Radar Cross Section
RCS unknown

Expand to show TLE details & history
Last TLE update: 16 hours ago

TLE from 16 hours ago
0 STARLINK-34542
1 65890U 25224J   25340.69865395  .00025460  00000-0  86831-3 0  9994
2 65890  53.1619  83.5199 0001421  91.2249 268.8914 15.30218547 10639
Epoch: 2025-12-06T16:46Z
TLE epoch observation values (Epoch: 2025-12-06T16:46:03.701Z)
Latitude
-0.00006°
Longitude
116.28178°
Altitude
476.079 km
Speed
7.629 km/s
True Right ascension
05h 34m 04s
True Declination
0° 00' 00"
Sunlit
Object was in full shadow at epoch
Visualization orbit readout
Latitude
Unknown
Longitude
Unknown
Altitude
Unknown
Speed
Unknown
Apparent Right ascension
Unknown
Apparent Declination
Unknown
Sunlit
N/A
Visualization observer readout
Local Sidereal Time
07:18:37
Azimuth
Unknown
Elevation
Unknown
Doppler factor
Unknown
Orbital elements
Apogee altitude
476.39 km
Perigee altitude
474.442 km
Semi-major axis
6,853.553 km
Eccentricity
0.00014
Inclination
53.1619°
RAAN
83.5199°
Arg. of periapsis
91.2249°
True anomaly
268.87512°
Mean anomaly
268.8914°
Eccentric anomaly
268.88326°
Mean motion
3.82534 °/min
Orbital period
94.11 mins
BSTAR
0.00086831
Loading maneuver chart data...
Computing Atmospheric mass density...
Loading historical data...
Loading historical data...
Loading historical data...
Loading historical data...
Loading historical data...
Loading historical data...
Loading historical data...

Documentation

Showing up to 5 results
|